Flight Briefing for CPX990

Departure Arrival
Alice Springs Airport (YBAS)
Click to view FAA NOTAMS
Kingsford Smith International Airport (YSSY)
Click to view FAA NOTAMS
Departure Time Arrival Time
N/A N/A
Aircraft Distance
B747-400BCF 1092nm
Departure METAR Arrival METAR
YBAS 250230Z AUTO 11003KT 9999 // NCD 25/04 Q1020 RF00.0/000.0 YSSY 250230Z 33007KT CAVOK 25/05 Q1017 NOSIG
Suggested Route
KALUG A576 PKS H319 TARAL Y59 RIVET


View recent IFR Routes data
Notes
EMPTY | NON-REVENUE REPOSITIONING LEG

Charts and Procedures

Charts for YBAS
No chart available
Charts for YSSY
No chart available

Windy.com Weather Map